Satellite: COMPASS
Catalog number: 32787
Epoch time: 14156.73367135
Element set: 948
Inclination: 097.7028 deg
RA of node: 210.5925 deg
Eccentricity: 0.0013480
Arg of perigee: 212.5658 deg
Mean anomaly: 147.4729 deg
Mean motion: 14.87857425 rev/day
Decay rate: 2.176e-05 rev/day^2
Epoch rev: 33048
Checksum: 329
Satellite: AAUSAT2
Catalog number: 32788
Epoch time: 14156.13829942
Element set: 934
Inclination: 097.7039 deg
RA of node: 210.9869 deg
Eccentricity: 0.0012961
Arg of perigee: 212.5936 deg
Mean anomaly: 147.4483 deg
Mean motion: 14.88560432 rev/day
Decay rate: 1.978e-05 rev/day^2
Epoch rev: 33045
Checksum: 338
Satellite: DO-64
Catalog number: 32789
Epoch time: 14156.15431179
Element set: 974
Inclination: 097.7221 deg
RA of node: 217.3877 deg
Eccentricity: 0.0012200
Arg of perigee: 198.1414 deg
Mean anomaly: 218.9399 deg
Mean motion: 14.93276956 rev/day
Decay rate: 3.342e-05 rev/day^2
Epoch rev: 33070
Checksum: 330
Satellite: CO-66
Catalog number: 32791
Epoch time: 14156.14135915
Element set: 931
Inclination: 097.7025 deg
RA of node: 208.8074 deg
Eccentricity: 0.0013931
Arg of perigee: 218.3758 deg
Mean anomaly: 141.6468 deg
Mean motion: 14.86531755 rev/day
Decay rate: 1.212e-05 rev/day^2
Epoch rev: 33026
Checksum: 307
Satellite: RS-30
Catalog number: 32953
Epoch time: 14156.64058719
Element set: 984
Inclination: 082.5040 deg
RA of node: 208.3903 deg
Eccentricity: 0.0019014
Arg of perigee: 176.9835 deg
Mean anomaly: 183.1366 deg
Mean motion: 12.43047704 rev/day
Decay rate: 1.0e-07 rev/day^2
Epoch rev: 27382
Checksum: 295
Satellite: METEOR-M
Catalog number: 35865
Epoch time: 14156.75557483
Element set: 599
Inclination: 098.5504 deg
RA of node: 204.5141 deg
Eccentricity: 0.0003066
Arg of perigee: 115.4896 deg
Mean anomaly: 244.6596 deg
Mean motion: 14.21922970 rev/day
Decay rate: -2.4e-07 rev/day^2
Epoch rev: 24471
Checksum: 317
Satellite: RS-38
Catalog number: 35869
Epoch time: 14156.75000038
Element set: 520
Inclination: 098.5441 deg
RA of node: 204.3117 deg
Eccentricity: 0.0005795
Arg of perigee: 124.2939 deg
Mean anomaly: 012.0480 deg
Mean motion: 14.22211095 rev/day
Decay rate: 3.3e-07 rev/day^2
Epoch rev: 24474
Checksum: 274
Satellite: JUGNU
Catalog number: 37839
Epoch time: 14155.81364957
Element set: 630
Inclination: 019.9628 deg
RA of node: 329.9313 deg
Eccentricity: 0.0018911
Arg of perigee: 208.5558 deg
Mean anomaly: 241.6316 deg
Mean motion: 14.12310215 rev/day
Decay rate: 3.64e-06 rev/day^2
Epoch rev: 13680
Checksum: 299
Satellite: SRMSAT
Catalog number: 37841
Epoch time: 14156.78930271
Element set: 635
Inclination: 019.9731 deg
RA of node: 343.1100 deg
Eccentricity: 0.0011722
Arg of perigee: 158.8771 deg
Mean anomaly: 321.7166 deg
Mean motion: 14.10352157 rev/day
Decay rate: 3.52e-06 rev/day^2
Epoch rev: 13674
Checksum: 278
Satellite: RAX-2
Catalog number: 37853
Epoch time: 14156.05160020
Element set: 823
Inclination: 101.7153 deg
RA of node: 179.9060 deg
Eccentricity: 0.0217227
Arg of perigee: 091.9173 deg
Mean anomaly: 329.1333 deg
Mean motion: 14.89266287 rev/day
Decay rate: 5.495e-05 rev/day^2
Epoch rev: 14085
Checksum: 300
Satellite: AUBIESAT
Catalog number: 37854
Epoch time: 14156.04874832
Element set: 805
Inclination: 101.7191 deg
RA of node: 181.7193 deg
Eccentricity: 0.0215248
Arg of perigee: 089.1562 deg
Mean anomaly: 331.0782 deg
Mean motion: 14.90577871 rev/day
Decay rate: 5.679e-05 rev/day^2
Epoch rev: 14090
Checksum: 318
Satellite: HRBE
Catalog number: 37855
Epoch time: 14156.03102985
Element set: 812
Inclination: 101.7195 deg
RA of node: 181.0751 deg
Eccentricity: 0.0217525
Arg of perigee: 090.4588 deg
Mean anomaly: 324.1546 deg
Mean motion: 14.89895960 rev/day
Decay rate: 5.931e-05 rev/day^2
Epoch rev: 14087
Checksum: 317
Satellite: RS-39
Catalog number: 38051
Epoch time: 14156.79362457
Element set: 605
Inclination: 051.6264 deg
RA of node: 280.0997 deg
Eccentricity: 0.0002470
Arg of perigee: 172.1760 deg
Mean anomaly: 311.0369 deg
Mean motion: 15.59328904 rev/day
Decay rate: 4.8678e-04 rev/day^2
Epoch rev: 13233
Checksum: 318
Satellite: E-STAR
Catalog number: 38079
Epoch time: 14156.05691916
Element set: 873
Inclination: 069.4536 deg
RA of node: 023.6213 deg
Eccentricity: 0.0376459
Arg of perigee: 012.5035 deg
Mean anomaly: 133.5122 deg
Mean motion: 15.06921862 rev/day
Decay rate: 8.6603e-04 rev/day^2
Epoch rev: 12163
Checksum: 300
Satellite: GOLIAT
Catalog number: 38085
Epoch time: 14156.77051824
Element set: 97
Inclination: 069.4581 deg
RA of node: 028.5569 deg
Eccentricity: 0.0399156
Arg of perigee: 014.9292 deg
Mean anomaly: 346.3246 deg
Mean motion: 15.01193716 rev/day
Decay rate: 8.4755e-04 rev/day^2
Epoch rev: 12156
Checksum: 332
Satellite: HORYU-2
Catalog number: 38340
Epoch time: 14156.87663301
Element set: 872
Inclination: 098.2591 deg
RA of node: 113.8846 deg
Eccentricity: 0.0011424
Arg of perigee: 208.1956 deg
Mean anomaly: 151.8653 deg
Mean motion: 14.72505776 rev/day
Decay rate: 8.69e-06 rev/day^2
Epoch rev: 11013
Checksum: 308
Satellite: RS-40
Catalog number: 38735
Epoch time: 14156.12668952
Element set: 586
Inclination: 082.4733 deg
RA of node: 295.0577 deg
Eccentricity: 0.0015924
Arg of perigee: 281.7551 deg
Mean anomaly: 078.1735 deg
Mean motion: 12.42559693 rev/day
Decay rate: 2.4e-07 rev/day^2
Epoch rev: 8408
Checksum: 331
Satellite: PROITERES
Catalog number: 38756
Epoch time: 14156.79442812
Element set: 895
Inclination: 098.2289 deg
RA of node: 244.9012 deg
Eccentricity: 0.0013477
Arg of perigee: 064.6854 deg
Mean anomaly: 295.5748 deg
Mean motion: 14.74955590 rev/day
Decay rate: 5.44e-06 rev/day^2
Epoch rev: 9350
Checksum: 348
Satellite: BEESAT-3
Catalog number: 39134
Epoch time: 14156.22515951
Element set: 604
Inclination: 064.8766 deg
RA of node: 176.4125 deg
Eccentricity: 0.0026887
Arg of perigee: 309.5746 deg
Mean anomaly: 050.2998 deg
Mean motion: 15.05166417 rev/day
Decay rate: 2.406e-05 rev/day^2
Epoch rev: 6186
Checksum: 319
Satellite: BEESAT-2
Catalog number: 39136
Epoch time: 14156.55018359
Element set: 590
Inclination: 064.8761 deg
RA of node: 175.8240 deg
Eccentricity: 0.0027000
Arg of perigee: 309.5240 deg
Mean anomaly: 050.3471 deg
Mean motion: 15.04572692 rev/day
Decay rate: 2.088e-05 rev/day^2
Epoch rev: 6190
Checksum: 286
Satellite: LO-75
Catalog number: 39382
Epoch time: 14156.43010563
Element set: 257
Inclination: 040.4938 deg
RA of node: 165.5074 deg
Eccentricity: 0.0017125
Arg of perigee: 156.7264 deg
Mean anomaly: 203.4342 deg
Mean motion: 15.43231720 rev/day
Decay rate: 3.6489e-04 rev/day^2
Epoch rev: 3024
Checksum: 286
Satellite: ZACUBE-1
Catalog number: 39417
Epoch time: 14156.73057545
Element set: 315
Inclination: 097.7759 deg
RA of node: 227.7458 deg
Eccentricity: 0.0061067
Arg of perigee: 280.8682 deg
Mean anomaly: 078.5640 deg
Mean motion: 14.78076778 rev/day
Decay rate: 6.96e-06 rev/day^2
Epoch rev: 2900
Checksum: 347
Satellite: TRITON-1
Catalog number: 39427
Epoch time: 14156.23716486
Element set: 169
Inclination: 097.7642 deg
RA of node: 223.3304 deg
Eccentricity: 0.0117408
Arg of perigee: 288.9766 deg
Mean anomaly: 069.8744 deg
Mean motion: 14.65369376 rev/day
Decay rate: 5.11e-06 rev/day^2
Epoch rev: 2864
Checksum: 340
